DMSP 5D-2 F13 DEB, 40434

Orbit data source: Space-Track

DMSP 5D-2 F13 DEB, 40434 is space debris in SSO originally from a launch on Fri, 24 Mar 1995 UTC launched from the Air Force Western Test Range (AFWTR). Debris objects in space refer to the collection of defunct objects orbiting the Earth. Examples of debris include non-operational satellites, rocket bodies, and fragments generated from explosions, collisions, or faulty payload assembly.

Loading next visibility...
Identifier
40434, 1995-015AL
Orbit
SSO
Country
Flag of USUS
Related business
Manufacturer
Unknown
Mission
Spacecraft
Bus & Motor
Unknown
Mass
Unknown
Launch date (UTC)
1995-03-24 (31 years ago)
Launch vehicle
Unknown
Launch site
Air Force Western Test Range (AFWTR)
Object type
Payload
Rocket body
Debris
Shape & HBR
Unknown shape, 0.1 m
Radar Cross Section
Small (<0.1 m²)

Expand to show TLE details & history
Last TLE update: 10 hours ago

TLE from 10 hours ago
0 DMSP 5D-2 F13 DEB
1 40434U 95015AL  26037.37341325  .00002266  00000-0  10630-2 0  9999
2 40434  99.1109  23.6906 0170803 225.9336 132.7666 14.13781311560878
Epoch: 2026-02-06T08:57Z
TLE epoch observation values (Epoch: 2026-02-06T08:57:42.904Z)
Latitude
-0.00006°
Longitude
112.74962°
Altitude
934.276 km
Speed
7.341 km/s
True Right ascension
01h 34m 45s
True Declination
0° 00' 00"
Sunlit
Object was in daylight at epoch
Visualization orbit readout
Latitude
Unknown
Longitude
Unknown
Altitude
Unknown
Speed
Unknown
Apparent Right ascension
Unknown
Apparent Declination
Unknown
Sunlit
N/A
Visualization observer readout
Local Sidereal Time
20:38:32
Azimuth
Unknown
Elevation
Unknown
Doppler factor
Unknown
Orbital elements
Apogee altitude
966.996 km
Perigee altitude
720.296 km
Semi-major axis
7,221.783 km
Eccentricity
0.01708
Inclination
99.1109°
RAAN
23.6906°
Arg. of periapsis
225.9336°
True anomaly
134.18279°
Mean anomaly
132.7666°
Eccentric anomaly
133.47675°
Mean motion
3.53652 °/min
Orbital period
101.79 mins
BSTAR
0.001063
Loading maneuver chart data...
Computing Atmospheric mass density...

Documentation

Showing up to 5 results
|